Retour au catalogue

RAPIDEYE 1

ActifScienceSSO
NORAD 33314·PAYLOAD·🇩🇪 Germany

Lancé Aug 29, 2008 depuis Baikonur Cosmodrome

Loading…

Prochains Passages (prochaines 24 heures)

TLE

FraisSource: Space-Track

Époque: Sep 14, 2026, 12:36 UTC

1 33314U 08040C   26257.52555234  .00000805  00000-0  62782-4 0  9991
2 33314  97.4072 281.6922 0025486 232.4618 127.4293 15.03640968979089

Suivez RAPIDEYE 1 en temps réel avec AllMySat

Download on the App Store